Forum Crazy Orc - Centre de statistiques

Statistiques générales

Total des membres:
970
Total des messages:
96 456
Total des sujets:
4 015
Total des catégories:
4
Membres en ligne:
56
Connexions simultanées:
808 - 21 janvier 2020 à 20:55:59
En ligne aujourd'hui:
80
Total des pages vues:
32 519 789
Moyenne des inscriptions par jour:
0,25
Moyenne des messages par jour:
24,88
Moyenne des sujets par jour:
1,10
Total des sections:
40
Dernier membre:
AlexC
Moyenne d'utilisateurs connectés par jour:
47,27
Ratio hommes/femmes:
7.1:1
Pages vues en moyenne par jour:
5 767,97

Top lanceurs de sujets

nunch
600
ManuDevil
287
Morithil
282
GroumpH
246
Scratchy
132
MAO
110
LeDupontesque
105
jules
99
snake
92
CCCP
85

Temps de connexion cumulé

Mandy
133j 19h 59m
GroumpH
112j 9h 9m
CCCP
86j 5h 36m
Nukeflow
73j 8h 19m
ManuDevil
67j 8h 10m
Felipe
61j 12h 19m
dao
56j 17h 58m
nunch
49j 46m
Rh
42j 23h 32m
Patate
41j 23h 0m

Historique du forum (basé sur l'heure interne du forum)

Résumé annuel Nouveaux sujets Nouveaux messages Nouveaux membres Connexions simultanées Pages vues
* 2022 116 685 58 208 2 266 056
Août 2022 1 14 1 116 110 259
Juillet 2022 13 69 4 208 308 045
Juin 2022 14 76 4 62 333 112
Mai 2022 16 118 8 91 339 244
Avril 2022 18 133 12 61 254 691
Mars 2022 15 123 8 65 281 935
Février 2022 17 84 9 58 314 588
Janvier 2022 22 68 12 70 324 182
* 2021 129 756 53 338 4 376 522
Décembre 2021 8 37 0 129 661 064
Novembre 2021 13 99 4 153 262 314
Octobre 2021 20 208 15 159 298 103
Septembre 2021 24 171 10 280 285 455
Août 2021 11 33 7 73 231 609
Juillet 2021 6 8 2 81 305 173
Juin 2021 17 31 2 135 311 168
Mai 2021 3 31 4 268 597 777
Avril 2021 10 51 6 287 308 355
Mars 2021 7 24 1 308 444 900
Février 2021 5 29 2 338 223 056
Janvier 2021 5 34 0 322 447 548
* 2020 206 1 716 105 808 4 713 463
Décembre 2020 6 38 2 320 310 487
Novembre 2020 12 97 3 352 464 426
2020-11-01 0 1 0 116 10 715
2020-11-02 2 3 0 125 9 649
2020-11-03 0 7 0 102 10 433
2020-11-04 0 0 0 95 11 152
2020-11-05 0 3 0 92 11 950
2020-11-06 1 4 0 86 9 328
2020-11-07 0 9 0 79 13 532
2020-11-08 0 4 0 97 10 296
2020-11-09 1 6 0 85 10 894
2020-11-10 0 5 0 79 6 851
2020-11-11 0 1 0 83 6 495
2020-11-12 0 1 0 86 10 836
2020-11-13 0 1 0 80 9 519
2020-11-14 0 0 0 72 8 283
2020-11-15 0 2 0 77 8 335
2020-11-16 3 10 1 78 9 396
2020-11-17 0 1 0 104 10 915
2020-11-18 1 2 0 352 16 974
2020-11-19 0 4 0 95 11 042
2020-11-20 1 4 2 87 10 172
2020-11-21 0 1 0 87 9 318
2020-11-22 1 7 0 81 8 520
2020-11-23 0 2 0 86 12 898
2020-11-24 0 3 0 101 11 997
2020-11-25 0 2 0 113 14 003
2020-11-26 1 3 0 108 12 703
2020-11-27 0 6 0 90 63 154
2020-11-28 0 1 0 92 102 895
2020-11-29 0 2 0 105 11 784
2020-11-30 1 2 0 116 10 387
Octobre 2020 21 169 7 346 497 422
Septembre 2020 30 356 15 133 325 183
Août 2020 16 147 7 163 471 897
Juillet 2020 16 77 2 100 345 760
2020-07-01 0 3 0 53 15 128
2020-07-02 0 0 0 50 14 023
2020-07-03 0 0 0 54 10 055
2020-07-04 0 1 0 54 7 181
2020-07-05 1 2 0 53 7 390
2020-07-06 2 4 0 53 12 535
2020-07-07 0 0 0 57 13 793
2020-07-08 1 3 1 56 12 452
2020-07-09 1 5 0 96 12 087
2020-07-10 0 5 0 98 12 988
2020-07-11 0 0 0 88 11 107
2020-07-12 0 2 0 83 8 142
2020-07-13 0 4 0 76 10 295
2020-07-14 1 2 0 78 11 064
2020-07-15 2 3 0 76 12 030
2020-07-16 1 13 0 84 10 150
2020-07-17 0 2 0 65 10 880
2020-07-18 0 1 0 68 11 217
2020-07-19 0 1 0 74 13 216
2020-07-20 1 6 1 100 12 998
2020-07-21 0 6 0 93 11 786
2020-07-22 3 6 0 73 9 832
2020-07-23 1 1 0 78 11 746
2020-07-24 0 1 0 90 11 406
2020-07-25 0 1 0 83 9 782
2020-07-26 0 0 0 93 11 234
2020-07-27 2 3 0 93 9 667
2020-07-28 0 0 0 98 10 158
2020-07-29 0 1 0 94 10 268
2020-07-30 0 1 0 93 11 155
2020-07-31 0 0 0 88 9 995
Juin 2020 17 60 5 127 452 817
Mai 2020 7 22 3 295 321 652
Avril 2020 10 47 1 189 300 030
Mars 2020 24 253 3 199 467 854
2020-03-01 0 7 0 104 10 346
2020-03-02 0 5 0 126 6 471
2020-03-03 3 17 1 107 4 913
2020-03-04 0 10 0 116 5 122
2020-03-05 1 12 0 143 8 779
2020-03-06 0 9 0 144 11 988
2020-03-07 0 2 0 123 11 124
2020-03-08 0 5 0 122 13 134
2020-03-09 0 10 0 117 13 459
2020-03-10 2 5 0 114 11 164
2020-03-11 0 4 0 105 8 274
2020-03-12 0 10 0 199 11 093
2020-03-13 0 9 0 186 12 284
2020-03-14 1 11 0 189 12 386
2020-03-15 1 12 1 189 11 665
2020-03-16 1 3 0 173 10 318
2020-03-17 0 8 0 116 9 643
2020-03-18 0 2 0 107 8 287
2020-03-19 0 4 0 105 10 639
2020-03-20 0 0 0 116 10 883
2020-03-21 0 4 0 114 10 354
2020-03-22 0 0 0 119 9 230
2020-03-23 3 9 0 112 6 679
2020-03-24 0 7 0 113 47 441
2020-03-25 0 10 0 107 140 101
2020-03-26 5 9 0 119 6 876
2020-03-27 1 6 0 154 6 818
2020-03-28 1 16 0 114 7 190
2020-03-29 2 20 0 105 6 840
2020-03-30 1 13 0 121 11 552
2020-03-31 2 14 1 117 12 801
Février 2020 18 171 9 323 281 798
Janvier 2020 29 279 48 808 474 137
* 2019 246 3 411 313 446 3 308 531
Décembre 2019 18 159 26 446 351 248
Novembre 2019 16 245 33 325 524 135
2019-11-01 1 5 3 104 6 570
2019-11-02 0 8 0 112 5 937
2019-11-03 5 17 2 103 5 135
2019-11-04 0 13 4 108 4 364
2019-11-05 1 7 1 101 4 644
2019-11-06 0 19 0 100 7 049
2019-11-07 0 16 0 107 5 602
2019-11-08 0 7 2 100 5 473
2019-11-09 0 10 2 115 4 378
2019-11-10 0 14 1 113 5 596
2019-11-11 2 6 0 98 4 288
2019-11-12 0 12 0 131 4 467
2019-11-13 0 9 1 114 5 320
2019-11-14 1 6 1 125 6 683
2019-11-15 1 13 1 120 4 926
2019-11-16 0 8 0 163 6 256
2019-11-17 0 3 0 134 5 852
2019-11-18 0 1 1 107 5 431
2019-11-19 0 9 4 99 4 758
2019-11-20 1 11 1 102 3 814
2019-11-21 0 6 0 117 9 376
2019-11-22 0 8 0 112 11 663
2019-11-23 0 6 0 101 8 399
2019-11-24 0 4 1 109 9 641
2019-11-25 0 2 2 112 8 759
2019-11-26 2 2 0 114 56 347
2019-11-27 2 6 1 111 123 100
2019-11-28 0 3 1 112 10 114
2019-11-29 0 8 2 110 67 835
2019-11-30 0 6 2 325 112 358
Octobre 2019 24 272 59 121 189 762
Septembre 2019 25 386 54 141 376 708
Août 2019 22 257 31 122 225 760
Juillet 2019 24 281 62 149 190 301
2019-07-01 4 24 0 104 8 142
2019-07-02 2 16 0 100 8 838
2019-07-03 0 5 0 95 8 928
2019-07-04 0 8 0 91 9 284
2019-07-05 1 10 1 91 6 175
2019-07-06 0 3 0 83 4 015
2019-07-07 0 3 0 89 3 603
2019-07-08 0 20 1 83 4 139
2019-07-09 0 11 0 90 7 781
2019-07-10 1 12 1 84 9 897
2019-07-11 0 15 0 91 7 893
2019-07-12 1 10 0 94 4 561
2019-07-13 0 1 0 88 3 908
2019-07-14 0 4 0 88 7 782
2019-07-15 0 8 0 92 8 996
2019-07-16 0 0 0 84 6 713
2019-07-17 0 7 1 92 7 822
2019-07-18 1 7 1 131 5 964
2019-07-19 3 17 0 88 3 871
2019-07-20 0 7 1 86 4 460
2019-07-21 0 6 1 149 3 654
2019-07-22 1 6 0 116 4 333
2019-07-23 0 3 0 124 2 777
2019-07-24 0 0 0 108 5 144
2019-07-25 1 6 8 136 6 264
2019-07-26 0 7 14 131 6 609
2019-07-27 0 6 4 131 6 579
2019-07-28 0 10 6 129 5 658
2019-07-29 1 17 9 110 5 459
2019-07-30 7 10 6 134 5 038
2019-07-31 1 22 8 142 6 014
Juin 2019 11 171 3 112 246 519
Mai 2019 23 311 10 167 218 891
Avril 2019 21 294 9 174 311 459
Mars 2019 22 372 16 142 344 146
2019-03-01 0 30 0 102 3 220
2019-03-02 0 23 0 102 3 097
2019-03-03 0 4 0 99 2 763
2019-03-04 0 5 0 105 2 518
2019-03-05 0 11 0 99 3 314
2019-03-06 0 11 1 97 5 983
2019-03-07 1 6 2 102 6 254
2019-03-08 1 24 1 100 9 845
2019-03-09 1 11 1 104 9 974
2019-03-10 0 18 0 109 12 925
2019-03-11 3 18 1 124 22 284
2019-03-12 0 14 0 120 15 724
2019-03-13 1 23 1 125 13 212
2019-03-14 0 7 1 132 13 861
2019-03-15 2 17 1 112 12 323
2019-03-16 0 6 1 135 11 288
2019-03-17 0 6 0 129 10 798
2019-03-18 1 8 0 122 10 562
2019-03-19 1 7 0 126 9 470
2019-03-20 1 16 1 122 10 084
2019-03-21 1 12 1 128 13 887
2019-03-22 0 4 0 129 13 984
2019-03-23 2 9 0 123 14 498
2019-03-24 4 13 0 129 36 957
2019-03-25 0 14 0 134 17 651
2019-03-26 1 11 1 126 9 572
2019-03-27 0 4 0 56 8 627
2019-03-28 0 14 1 142 8 864
2019-03-29 0 5 0 126 11 607
2019-03-30 0 2 0 131 10 223
2019-03-31 2 19 2 129 8 777
Février 2019 18 288 4 110 142 132
Janvier 2019 22 375 6 113 187 470
* 2018 338 6 176 81 641 2 624 946
Décembre 2018 43 306 8 253 421 582
Novembre 2018 26 467 9 641 383 363
Octobre 2018 34 527 6 321 248 725
Septembre 2018 34 641 10 127 216 306
Août 2018 32 583 16 101 188 648
Juillet 2018 21 386 3 104 182 475
2018-07-01 0 17 0 98 5 851
2018-07-02 0 3 1 93 5 331
2018-07-03 0 9 0 102 6 039
2018-07-04 3 21 0 95 8 377
2018-07-05 0 5 0 89 5 211
2018-07-06 5 16 0 94 5 550
2018-07-07 0 10 0 92 5 422
2018-07-08 0 12 0 94 7 624
2018-07-09 1 11 1 93 5 229
2018-07-10 1 8 0 93 5 538
2018-07-11 0 19 0 86 5 102
2018-07-12 0 9 1 84 4 916
2018-07-13 0 17 0 82 5 453
2018-07-14 0 9 0 90 4 210
2018-07-15 0 7 0 82 5 017
2018-07-16 0 26 0 90 8 111
2018-07-17 1 19 0 102 5 632
2018-07-18 4 27 0 102 6 009
2018-07-19 1 28 0 99 6 343
2018-07-20 1 15 0 104 6 087
2018-07-21 1 13 0 93 6 072
2018-07-22 1 24 0 91 5 850
2018-07-23 0 12 0 97 6 595
2018-07-24 0 5 0 94 4 057
2018-07-25 0 5 0 96 6 576
2018-07-26 1 2 0 92 6 460
2018-07-27 0 11 0 89 6 309
2018-07-28 0 4 0 91 6 042
2018-07-29 0 5 0 93 5 366
2018-07-30 1 4 0 94 6 266
2018-07-31 0 13 0 87 5 830
Juin 2018 31 442 3 110 213 303
Mai 2018 21 422 4 107 174 393
Avril 2018 25 564 5 104 159 849
Mars 2018 20 634 4 96 152 933
2018-03-01 0 7 0 20 8 226
2018-03-02 0 23 0 16 1 189
2018-03-03 0 28 0 19 1 566
2018-03-04 1 44 0 21 1 915
2018-03-05 0 11 0 17 1 328
2018-03-06 0 10 0 75 1 912
2018-03-07 1 21 0 89 4 461
2018-03-08 0 18 0 83 4 381
2018-03-09 0 14 0 94 4 761
2018-03-10 0 22 0 87 5 080
2018-03-11 1 24 0 90 6 619
2018-03-12 4 69 2 79 4 642
2018-03-13 2 36 1 88 5 239
2018-03-14 1 25 0 90 4 987
2018-03-15 2 9 0 81 4 572
2018-03-16 0 7 0 77 4 268
2018-03-17 0 9 0 81 4 271
2018-03-18 0 13 0 91 4 435
2018-03-19 2 12 0 79 4 301
2018-03-20 0 30 0 87 4 317
2018-03-21 0 7 0 86 4 027
2018-03-22 1 19 0 84 4 514
2018-03-23 0 14 0 91 4 486
2018-03-24 0 6 0 81 4 292
2018-03-25 0 11 0 78 4 516
2018-03-26 2 16 0 86 4 584
2018-03-27 0 7 0 80 4 375
2018-03-28 0 22 0 80 4 705
2018-03-29 0 27 0 79 4 483
2018-03-30 1 40 1 82 4 671
2018-03-31 2 33 0 96 25 810
Février 2018 25 631 7 93 121 912
Janvier 2018 26 573 6 94 161 457
* 2017 346 6 100 56 180 1 675 168
Décembre 2017 37 499 6 91 136 063
Novembre 2017 37 675 6 93 169 670
Octobre 2017 15 426 2 93 151 449
Septembre 2017 28 548 5 94 135 543
Août 2017 29 384 6 99 148 097
Juillet 2017 25 490 5 87 176 472
Juin 2017 33 603 4 89 156 248
Mai 2017 26 470 2 99 181 189
Avril 2017 31 490 5 180 139 896
Mars 2017 27 432 3 119 90 981
Février 2017 31 587 7 87 74 924
Janvier 2017 27 496 5 80 114 636
* 2016 389 7 721 79 245 2 075 605
Décembre 2016 34 533 2 170 118 206
Novembre 2016 34 586 6 245 122 991
2016-11-01 0 34 0 79 3 768
2016-11-02 1 38 0 64 4 674
2016-11-03 0 17 0 50 3 172
2016-11-04 3 43 1 52 3 641
2016-11-05 0 23 1 54 4 697
2016-11-06 2 19 0 50 3 669
2016-11-07 1 24 0 81 3 628
2016-11-08 1 15 0 83 5 212
2016-11-09 0 11 1 52 2 529
2016-11-10 0 16 0 33 3 252
2016-11-11 1 17 0 66 3 953
2016-11-12 3 25 1 66 4 075
2016-11-13 1 4 0 62 4 031
2016-11-14 2 21 0 55 3 434
2016-11-15 0 20 0 245 4 465
2016-11-16 3 26 1 70 4 516
2016-11-17 0 26 0 64 4 350
2016-11-18 1 18 0 70 3 943
2016-11-19 0 16 0 68 4 222
2016-11-20 3 21 0 65 3 980
2016-11-21 0 14 0 60 3 884
2016-11-22 0 15 0 48 3 315
2016-11-23 1 14 0 86 4 910
2016-11-24 1 13 0 64 4 600
2016-11-25 4 30 0 68 4 613
2016-11-26 1 12 0 66 5 051
2016-11-27 3 14 1 59 4 515
2016-11-28 1 6 0 59 3 726
2016-11-29 1 29 0 61 5 179
2016-11-30 0 5 0 75 3 987
Octobre 2016 43 726 7 191 160 217
Septembre 2016 26 657 9 85 157 449
Août 2016 31 721 9 114 169 873
Juillet 2016 19 513 3 58 166 690
2016-07-01 0 12 0 45 7 913
2016-07-02 1 14 0 53 5 460
2016-07-03 0 12 0 43 5 640
2016-07-04 0 21 0 51 5 125
2016-07-05 0 19 0 53 19 299
2016-07-06 1 26 0 47 4 798
2016-07-07 1 14 1 45 5 226
2016-07-08 0 17 0 29 4 376
2016-07-09 2 9 1 33 3 581
2016-07-10 0 17 0 30 3 953
2016-07-11 0 19 0 33 3 994
2016-07-12 0 6 0 34 4 003
2016-07-13 0 6 0 29 3 703
2016-07-14 0 9 0 36 3 393
2016-07-15 0 12 0 46 3 985
2016-07-16 0 8 0 49 3 862
2016-07-17 1 15 0 46 6 224
2016-07-18 3 49 0 48 9 490
2016-07-19 5 19 0 58 12 133
2016-07-20 1 27 0 53 6 421
2016-07-21 0 15 0 44 4 051
2016-07-22 1 24 0 35 2 980
2016-07-23 0 9 0 46 2 786
2016-07-24 0 5 0 50 3 313
2016-07-25 0 18 0 48 3 778
2016-07-26 1 16 0 49 3 234
2016-07-27 1 13 1 45 3 378
2016-07-28 0 28 0 42 4 140
2016-07-29 0 14 0 54 4 296
2016-07-30 0 16 0 49 6 668
2016-07-31 1 24 0 56 5 487
Juin 2016 30 565 5 53 211 715
Mai 2016 40 1 116 8 94 166 514
Avril 2016 27 529 7 65 155 208
Mars 2016 35 513 11 88 224 056
Février 2016 35 640 4 96 192 454
Janvier 2016 35 622 8 95 230 232
* 2015 373 6 684 79 100 1 549 803
Décembre 2015 28 499 7 68 140 303
Novembre 2015 40 724 5 35 146 607
2015-11-01 1 18 0 27 4 452
2015-11-02 0 9 0 24 5 327
2015-11-03 1 7 0 22 11 240
2015-11-04 0 0 0 18 11 102
2015-11-05 0 4 0 24 12 062
2015-11-06 1 19 0 20 6 702
2015-11-07 7 38 0 21 3 288
2015-11-08 0 25 0 20 5 256
2015-11-09 0 32 0 22 3 384
2015-11-10 0 11 0 21 2 914
2015-11-11 0 8 0 22 2 384
2015-11-12 0 24 0 30 2 736
2015-11-13 0 32 0 20 2 709
2015-11-14 2 21 1 24 3 133
2015-11-15 2 28 0 21 18 160
2015-11-16 0 28 0 22 4 664
2015-11-17 0 22 0 35 3 181
2015-11-18 6 48 1 20 3 200
2015-11-19 1 28 0 29 3 049
2015-11-20 10 39 2 20 2 941
2015-11-21 1 10 0 17 3 452
2015-11-22 0 33 0 18 4 436
2015-11-23 1 21 1 32 4 524
2015-11-24 1 28 0 23 5 198
2015-11-25 1 23 0 19 4 024
2015-11-26 1 29 0 15 2 788
2015-11-27 0 39 0 16 3 090
2015-11-28 1 29 0 20 2 052
2015-11-29 1 29 0 18 2 495
2015-11-30 2 42 0 24 2 664
Octobre 2015 32 760 10 84 227 528
Septembre 2015 40 948 13 100 169 012
Août 2015 36 566 12 61 119 954
Juillet 2015 29 462 7 31 89 666
2015-07-01 0 4 0 13 1 257
2015-07-02 1 2 0 14 1 570
2015-07-03 3 24 0 19 2 798
2015-07-04 0 8 0 18 2 278
2015-07-05 0 18 2 17 3 771
2015-07-06 3 52 0 23 5 662
2015-07-07 0 9 0 19 4 584
2015-07-08 0 10 0 18 3 475
2015-07-09 2 21 0 16 2 090
2015-07-10 0 7 0 18 2 685
2015-07-11 0 9 0 16 2 150
2015-07-12 0 17 0 21 2 665
2015-07-13 0 12 0 21 3 531
2015-07-14 1 11 0 19 5 009
2015-07-15 2 17 0 19 5 094
2015-07-16 1 20 0 18 4 130
2015-07-17 0 11 0 18 3 208
2015-07-18 2 15 1 21 3 167
2015-07-19 0 22 0 16 2 520
2015-07-20 0 13 0 16 2 374
2015-07-21 0 8 1 18 2 140
2015-07-22 1 19 0 14 2 340
2015-07-23 5 18 1 19 2 644
2015-07-24 2 29 1 19 2 376
2015-07-25 1 26 0 20 2 151
2015-07-26 1 15 0 31 2 342
2015-07-27 2 8 1 17 1 660
2015-07-28 0 16 0 14 2 104
2015-07-29 0 8 0 13 2 648
2015-07-30 2 6 0 17 2 245
2015-07-31 0 7 0 15 2 998
Juin 2015 24 453 5 30 112 317
Mai 2015 30 390 2 24 73 874
Avril 2015 29 408 4 25 95 371
Mars 2015 38 550 7 37 130 116
Février 2015 15 434 2 24 123 854
Janvier 2015 32 490 5 44 121 201
* 2014 428 7 364 58 58 2 478 164
Décembre 2014 24 360 4 33 191 610
Novembre 2014 37 572 7 46 525 858
Octobre 2014 45 928 8 58 364 915
Septembre 2014 24 549 8 32 162 413
Août 2014 17 251 4 27 191 624
Juillet 2014 25 369 3 30 236 312
Juin 2014 29 602 3 32 220 918
Mai 2014 34 842 6 29 157 174
Avril 2014 45 662 1 25 104 486
Mars 2014 32 595 4 26 120 439
2014-03-01 0 12 1 20 3 786
2014-03-02 1 4 1 24 3 590
2014-03-03 0 7 0 20 2 446
2014-03-04 0 23 0 20 3 629
2014-03-05 2 22 0 21 3 661
2014-03-06 1 18 0 20 2 585
2014-03-07 0 15 0 23 2 700
2014-03-08 1 13 0 21 2 461
2014-03-09 0 4 0 19 2 983
2014-03-10 0 19 0 16 2 791
2014-03-11 1 19 0 19 3 130
2014-03-12 0 16 0 21 3 522
2014-03-13 1 31 0 22 5 550
2014-03-14 0 16 0 26 4 818
2014-03-15 1 11 0 21 5 306
2014-03-16 4 19 0 24 6 026
2014-03-17 3 25 0 20 3 862
2014-03-18 2 35 0 22 5 721
2014-03-19 0 19 0 21 4 981
2014-03-20 1 25 1 18 3 637
2014-03-21 1 27 0 24 5 005
2014-03-22 1 13 0 20 4 151
2014-03-23 4 27 0 20 5 982
2014-03-24 2 46 0 21 4 374
2014-03-25 0 26 0 18 2 690
2014-03-26 2 23 1 19 3 653
2014-03-27 0 19 0 20 3 562
2014-03-28 3 18 0 20 3 984
2014-03-29 0 17 0 17 3 432
2014-03-30 0 7 0 17 2 121
2014-03-31 1 19 0 18 4 300
Février 2014 24 660 5 28 102 996
Janvier 2014 92 974 5 33 99 419
* 2013 408 8 887 76 89 1 597 727
Décembre 2013 36 785 2 79 132 305
Novembre 2013 36 751 8 29 141 119
Octobre 2013 37 683 10 26 116 570
Septembre 2013 33 723 15 29 160 779
Août 2013 20 356 4 30 113 960
Juillet 2013 21 331 2 24 120 164
2013-07-01 0 9 0 24 4 330
2013-07-02 1 11 0 16 2 693
2013-07-03 4 28 0 23 4 775
2013-07-04 2 26 0 16 4 174
2013-07-05 0 16 0 20 4 074
2013-07-06 0 8 0 21 4 135
2013-07-07 1 6 0 17 2 726
2013-07-08 1 11 0 17 4 747
2013-07-09 0 9 0 18 3 831
2013-07-10 0 5 0 16 3 040
2013-07-11 1 6 0 19 4 713
2013-07-12 1 16 0 19 4 099
2013-07-13 0 3 0 14 4 400
2013-07-14 0 2 0 15 3 941
2013-07-15 0 2 0 15 3 367
2013-07-16 1 4 0 18 4 261
2013-07-17 2 23 0 22 3 788
2013-07-18 0 16 0 15 3 415
2013-07-19 1 2 0 16 2 111
2013-07-20 1 7 0 17 1 889
2013-07-21 0 5 0 18 4 035
2013-07-22 2 21 0 15 10 438
2013-07-23 0 9 1 18 4 311
2013-07-24 1 12 0 15 4 353
2013-07-25 1 15 0 24 3 021
2013-07-26 0 10 0 20 4 122
2013-07-27 1 12 0 12 2 914
2013-07-28 0 7 0 17 2 977
2013-07-29 0 13 0 19 2 352
2013-07-30 0 9 1 17 2 615
2013-07-31 0 8 0 18 4 517
Juin 2013 40 731 5 34 119 512
Mai 2013 34 881 3 47 157 484
Avril 2013 38 799 8 33 124 279
Mars 2013 40 1 111 9 62 147 762
2013-03-01 0 12 0 51 6 549
2013-03-02 1 13 0 37 4 543
2013-03-03 2 43 0 37 3 584
2013-03-04 0 47 0 48 5 492
2013-03-05 1 28 2 43 10 235
2013-03-06 0 23 1 23 5 242
2013-03-07 1 25 0 17 2 873
2013-03-08 2 34 0 22 3 808
2013-03-09 2 35 1 15 3 643
2013-03-10 4 41 0 43 3 470
2013-03-11 1 26 0 30 4 367
2013-03-12 0 34 1 21 4 299
2013-03-13 3 59 0 24 4 126
2013-03-14 3 38 0 18 4 289
2013-03-15 1 63 1 18 4 539
2013-03-16 0 26 0 16 3 540
2013-03-17 1 34 0 18 3 678
2013-03-18 1 70 0 62 5 572
2013-03-19 4 21 1 27 3 636
2013-03-20 1 43 1 33 6 483
2013-03-21 2 43 0 23 5 533
2013-03-22 0 29 0 24 4 112
2013-03-23 3 17 0 20 3 638
2013-03-24 3 68 0 23 4 766
2013-03-25 0 41 1 22 8 947
2013-03-26 3 50 0 20 6 590
2013-03-27 0 39 0 27 3 966
2013-03-28 0 37 0 24 5 372
2013-03-29 0 42 0 19 5 271
2013-03-30 1 17 0 14 2 181
2013-03-31 0 13 0 18 3 418
Février 2013 32 838 5 79 125 299
Janvier 2013 41 898 5 89 138 494
* 2012 446 10 690 67 157 1 274 957
Décembre 2012 57 1 411 4 45 150 137
Novembre 2012 46 1 137 8 25 112 399
Octobre 2012 45 1 068 7 25 80 970
Septembre 2012 37 876 11 38 107 023
Août 2012 30 595 5 41 95 032
Juillet 2012 24 563 2 157 78 638
2012-07-01 2 33 0 20 3 383
2012-07-02 0 39 0 16 3 176
2012-07-03 1 42 0 21 2 769
2012-07-04 0 21 0 18 2 427
2012-07-05 0 28 0 19 2 191
2012-07-06 0 29 0 15 2 402
2012-07-07 2 10 0 25 4 165
2012-07-08 0 13 1 17 1 741
2012-07-09 2 18 0 14 3 585
2012-07-10 2 24 0 14 2 317
2012-07-11 0 39 0 22 3 204
2012-07-12 0 32 0 14 1 963
2012-07-13 1 28 0 16 1 977
2012-07-14 0 17 0 16 1 834
2012-07-15 3 22 0 30 3 446
2012-07-16 1 11 0 26 3 044
2012-07-17 0 5 0 13 1 616
2012-07-18 2 14 0 15 1 754
2012-07-19 0 21 0 13 2 427
2012-07-20 0 15 0 18 1 824
2012-07-21 0 10 0 10 1 292
2012-07-22 0 6 0 18 1 434
2012-07-23 1 7 0 17 1 873
2012-07-24 2 8 0 157 7 112
2012-07-25 2 13 1 13 1 667
2012-07-26 1 6 0 14 1 478
2012-07-27 1 14 0 16 2 610
2012-07-28 0 6 0 17 2 026
2012-07-29 0 11 0 16 2 266
2012-07-30 1 11 0 15 2 745
2012-07-31 0 10 0 17 2 890
Juin 2012 39 984 10 33 88 620
Mai 2012 22 703 5 26 77 701
Avril 2012 33 714 4 33 95 151
Mars 2012 35 977 5 48 160 160
2012-03-01 1 35 0 27 6 158
2012-03-02 3 13 2 26 5 378
2012-03-03 0 18 0 23 5 671
2012-03-04 4 28 1 20 5 358
2012-03-05 4 89 0 29 6 627
2012-03-06 1 45 0 45 6 165
2012-03-07 0 59 0 20 7 932
2012-03-08 3 35 0 46 6 667
2012-03-09 1 33 0 21 6 097
2012-03-10 0 22 0 21 5 441
2012-03-11 1 28 0 25 5 443
2012-03-12 1 20 0 25 5 930
2012-03-13 0 15 0 21 5 416
2012-03-14 2 34 0 48 6 562
2012-03-15 0 17 0 31 4 576
2012-03-16 0 14 0 30 4 508
2012-03-17 1 25 0 25 4 761
2012-03-18 1 39 0 27 5 081
2012-03-19 2 29 0 40 5 719
2012-03-20 2 51 0 24 5 746
2012-03-21 1 42 1 23 4 563
2012-03-22 0 34 0 23 4 276
2012-03-23 1 25 0 18 4 565
2012-03-24 2 38 1 21 4 568
2012-03-25 2 25 0 22 3 868
2012-03-26 1 34 0 21 4 653
2012-03-27 1 41 0 22 3 772
2012-03-28 0 16 0 23 3 667
2012-03-29 0 22 0 27 3 720
2012-03-30 0 20 0 24 3 175
2012-03-31 0 31 0 18 4 097
Février 2012 34 704 5 33 117 877
Janvier 2012 44 958 1 30 111 249
* 2011 822 21 877 118 48 1 861 895
Décembre 2011 68 1 315 7 36 141 929
2011-12-01 0 46 0 28 3 436
2011-12-02 2 46 0 29 5 093
2011-12-03 3 35 0 24 3 173
2011-12-04 5 39 0 26 6 734
2011-12-05 5 109 0 36 4 968
2011-12-06 3 65 0 25 7 602
2011-12-07 4 93 1 28 6 025
2011-12-08 2 76 0 22 4 333
2011-12-09 1 94 0 29 6 392
2011-12-10 5 39 1 25 5 955
2011-12-11 3 49 1 27 5 545
2011-12-12 4 48 0 23 3 344
2011-12-13 3 64 0 28 6 227
2011-12-14 1 28 0 21 2 931
2011-12-15 4 66 1 31 4 951
2011-12-16 3 30 0 28 3 649
2011-12-17 1 29 0 19 4 090
2011-12-18 3 76 1 25 6 571
2011-12-19 5 67 2 23 5 351
2011-12-20 5 57 0 27 5 091
2011-12-21 0 12 0 22 5 526
2011-12-22 0 4 0 25 2 840
2011-12-23 1 8 0 18 3 720
2011-12-24 1 19 0 23 5 013
2011-12-25 1 26 0 17 2 000
2011-12-26 0 22 0 14 3 519
2011-12-27 2 20 0 25 3 302
2011-12-28 0 13 0 24 4 326
2011-12-29 1 16 0 20 3 816
2011-12-30 0 11 0 19 4 054
2011-12-31 0 8 0 28 2 352
Novembre 2011 94 1 539 4 36 150 015
Octobre 2011 81 1 597 13 41 169 207
Septembre 2011 96 1 991 19 24 158 540
Août 2011 68 1 372 16 48 135 201
Juillet 2011 57 1 156 10 30 112 626
Juin 2011 40 1 214 6 31 149 115
Mai 2011 64 1 997 8 39 181 997
Avril 2011 46 1 637 9 38 176 986
Mars 2011 54 2 388 6 31 211 307
Février 2011 59 2 656 5 46 128 248
Janvier 2011 95 3 015 15 44 146 724
* 2010 615 23 079 70 91 1 409 620
Décembre 2010 54 2 635 5 43 199 984
2010-12-01 4 200 0 33 5 797
2010-12-02 2 80 0 27 4 428
2010-12-03 0 92 0 23 3 768
2010-12-04 1 50 1 19 2 892
2010-12-05 1 52 0 26 3 390
2010-12-06 0 92 0 29 3 863
2010-12-07 1 113 0 34 4 176
2010-12-08 2 59 0 34 4 663
2010-12-09 1 112 1 30 4 738
2010-12-10 0 81 0 26 4 475
2010-12-11 2 57 0 29 3 894
2010-12-12 2 51 0 42 3 962
2010-12-13 3 63 0 32 4 381
2010-12-14 2 89 0 32 7 458
2010-12-15 2 146 0 32 8 138
2010-12-16 1 120 0 33 13 324
2010-12-17 2 134 0 43 25 752
2010-12-18 1 65 0 17 12 634
2010-12-19 3 59 0 21 14 562
2010-12-20 4 92 1 26 8 417
2010-12-21 1 83 1 24 6 202
2010-12-22 4 109 0 34 8 319
2010-12-23 2 97 0 31 4 509
2010-12-24 0 19 0 17 4 671
2010-12-25 2 33 0 33 4 728
2010-12-26 2 42 0 31 4 717
2010-12-27 3 132 1 41 5 593
2010-12-28 1 78 0 43 4 517
2010-12-29 2 117 0 31 4 767
2010-12-30 2 87 0 24 4 387
2010-12-31 1 31 0 24 2 862
Novembre 2010 59 2 475 6 49 127 779
Octobre 2010 56 2 811 15 58 134 942
Septembre 2010 53 1 528 8 29 95 249
Août 2010 32 1 287 6 33 89 617
Juillet 2010 34 1 637 5 32 97 290
Juin 2010 46 2 137 3 28 109 648
Mai 2010 50 1 497 6 28 99 050
Avril 2010 45 1 888 3 26 102 219
Mars 2010 53 1 534 2 46 118 201
2010-03-01 2 57 0 30 3 808
2010-03-02 1 43 0 28 3 278
2010-03-03 1 50 0 25 3 337
2010-03-04 1 45 0 29 2 857
2010-03-05 2 45 0 23 2 770
2010-03-06 0 15 1 22 3 117
2010-03-07 3 37 1 27 3 446
2010-03-08 2 103 0 29 4 766
2010-03-09 4 45 0 30 3 965
2010-03-10 1 57 0 29 4 220
2010-03-11 1 71 0 36 4 632
2010-03-12 0 25 0 30 4 266
2010-03-13 4 54 0 32 4 286
2010-03-14 1 46 0 16 4 716
2010-03-15 2 68 0 35 4 863
2010-03-16 0 24 0 29 4 037
2010-03-17 3 52 0 26 4 054
2010-03-18 2 43 0 25 3 982
2010-03-19 0 43 0 46 4 350
2010-03-20 1 24 0 28 3 099
2010-03-21 4 43 0 27 3 413
2010-03-22 6 57 0 19 3 536
2010-03-23 2 73 0 16 3 468
2010-03-24 1 69 0 24 3 359
2010-03-25 1 37 0 19 3 480
2010-03-26 0 40 0 21 3 801
2010-03-27 0 21 0 16 2 808
2010-03-28 2 34 0 17 3 354
2010-03-29 3 83 0 15 4 329
2010-03-30 1 60 0 19 3 857
2010-03-31 2 70 0 21 4 947
Février 2010 65 1 574 4 91 117 274
Janvier 2010 68 2 076 7 43 118 367
* 2009 752 28 223 96 159 970 278
Décembre 2009 39 2 001 5 54 122 418
2009-12-01 2 99 0 21 3 827
2009-12-02 0 91 0 20 3 658
2009-12-03 3 128 0 22 4 078
2009-12-04 2 111 0 23 3 795
2009-12-05 1 47 1 17 2 228
2009-12-06 2 48 0 17 3 135
2009-12-07 1 116 1 27 3 862
2009-12-08 1 58 0 19 4 184
2009-12-09 1 94 0 33 3 923
2009-12-10 0 72 0 38 3 566
2009-12-11 1 46 0 25 2 665
2009-12-12 1 38 0 29 2 266
2009-12-13 0 42 0 28 1 478
2009-12-14 2 86 0 26 2 993
2009-12-15 2 128 0 32 3 520
2009-12-16 3 89 0 25 3 587
2009-12-17 2 106 0 31 3 888
2009-12-18 0 129 0 54 6 524
2009-12-19 0 43 0 14 2 643
2009-12-20 1 41 0 28 7 360
2009-12-21 2 76 0 28 8 634
2009-12-22 5 114 1 31 4 041
2009-12-23 0 33 0 39 3 096
2009-12-24 1 34 0 13 2 752
2009-12-25 0 7 0 32 3 780
2009-12-26 2 26 0 21 2 640
2009-12-27 0 33 1 10 2 292
2009-12-28 2 14 1 27 10 310
2009-12-29 0 18 0 15 5 672
2009-12-30 1 16 0 14 2 982
2009-12-31 1 18 0 11 3 039
Novembre 2009 59 3 138 6 38 117 432
Octobre 2009 67 3 218 11 18 122 232
Septembre 2009 73 2 730 14 159 92 082
Août 2009 47 1 405 8 15 61 919
Juillet 2009 68 1 737 11 21 67 267
Juin 2009 63 2 759 4 37 72 789
Mai 2009 46 2 166 6 16 66 386
Avril 2009 101 2 850 6 16 73 303
2009-04-01 3 166 1 14 3 669
2009-04-02 1 193 0 11 4 316
2009-04-03 1 125 1 11 2 873
2009-04-04 0 28 1 16 1 192
2009-04-05 0 23 0 9 1 660
2009-04-06 2 85 0 10 2 211
2009-04-07 5 106 0 14 2 655
2009-04-08 0 63 0 10 2 215
2009-04-09 2 119 0 14 2 827
2009-04-10 2 67 0 12 3 232
2009-04-11 0 27 0 9 1 101
2009-04-12 3 47 0 9 1 431
2009-04-13 3 98 1 9 2 738
2009-04-14 4 78 0 10 2 286
2009-04-15 3 108 0 10 2 870
2009-04-16 3 81 0 11 2 229
2009-04-17 0 92 0 12 2 534
2009-04-18 2 24 0 6 1 168
2009-04-19 2 68 0 10 1 951
2009-04-20 8 173 0 11 3 260
2009-04-21 4 205 0 15 3 878
2009-04-22 1 65 0 9 2 011
2009-04-23 0 115 0 11 2 136
2009-04-24 32 152 0 13 3 302
2009-04-25 2 37 1 12 1 453
2009-04-26 5 110 0 9 2 132
2009-04-27 0 112 0 12 2 669
2009-04-28 3 105 0 11 2 478
2009-04-29 4 103 1 12 2 554
2009-04-30 6 75 0 11 2 272
Mars 2009 80 3 538 7 17 83 610
Février 2009 57 1 586 6 16 50 521
Janvier 2009 52 1 095 12 10 40 319
* 2008 334 4 655 56 26 234 055
Décembre 2008 36 663 7 12 28 104
Novembre 2008 51 1 090 9 10 35 948
Octobre 2008 50 609 5 10 26 582
Septembre 2008 40 619 5 10 24 365
Août 2008 28 252 6 9 21 916
Juillet 2008 20 256 5 7 16 733
Juin 2008 17 363 6 26 18 903
Mai 2008 17 180 2 10 13 320
Avril 2008 16 146 3 8 16 063
Mars 2008 18 158 1 9 12 835
Février 2008 19 155 2 9 9 679
Janvier 2008 22 164 5 7 9 607
* 2007 276 2 246 55 9 102 999
Décembre 2007 21 167 5 8 17 081
Novembre 2007 20 168 3 6 8 467
Octobre 2007 21 147 4 5 8 193
Septembre 2007 22 183 4 9 9 896
Août 2007 23 226 2 6 9 096
Juillet 2007 18 127 1 4 10 165
Juin 2007 25 309 2 6 13 196
Mai 2007 30 315 8 7 11 830
Avril 2007 44 428 13 9 13 382
2007-04-01 0 21 1 4 390
2007-04-02 4 25 0 6 522
2007-04-03 4 21 1 6 568
2007-04-04 3 41 1 8 1 017
2007-04-05 2 58 0 6 1 236
2007-04-06 1 29 0 6 771
2007-04-07 2 16 1 4 539
2007-04-08 0 6 0 3 243
2007-04-09 2 12 0 6 273
2007-04-10 0 6 0 6 265
2007-04-11 1 7 0 8 508
2007-04-12 1 4 1 8 599
2007-04-13 1 8 1 9 612
2007-04-14 1 2 0 4 309
2007-04-15 0 5 0 5 135
2007-04-16 0 11 0 4 467
2007-04-17 0 4 1 4 250
2007-04-18 1 8 0 7 274
2007-04-19 6 17 0 6 489
2007-04-20 1 23 1 5 463
2007-04-21 1 9 0 6 307
2007-04-22 1 11 2 4 277
2007-04-23 2 10 1 6 377
2007-04-24 1 22 0 5 524
2007-04-25 2 17 1 6 389
2007-04-26 3 12 0 6 502
2007-04-27 1 11 0 4 361
2007-04-28 2 3 0 3 172
2007-04-29 0 8 1 5 310
2007-04-30 1 1 0 5 233
Mars 2007 52 176 13 4 1 693